GMT,Max TemperatureF,Mean TemperatureF,Min TemperatureF,Max Dew PointF,MeanDew PointF,Min DewpointF,Max Humidity, Mean Humidity, Min Humidity, Max Sea Level PressureIn, Mean Sea Level PressureIn, Min Sea Level PressureIn, Max VisibilityMiles, Mean VisibilityMiles, Min VisibilityMiles, Max Wind SpeedMPH, Mean Wind SpeedMPH, Max Gust SpeedMPH,PrecipitationIn, CloudCover, Events, WindDirDegrees
2013-10-1,68,64,60,61,59,59,96,89,73,29.55,29.51,29.50,19,6,3,21,14,,0.20,6,Rain,107
2013-10-2,68,64,60,61,59,55,100,86,61,29.52,29.47,29.44,19,7,5,21,14,,0.08,4,Rain,125
2013-10-3,65,62,59,61,59,57,100,91,81,29.56,29.50,29.47,19,6,2,17,12,,0.08,6,Rain,136
2013-10-4,61,58,55,59,55,51,100,90,74,29.95,29.76,29.56,19,7,4,17,7,,0.02,6,Rain,260
2013-10-5,67,60,53,55,53,49,94,79,50,30.15,30.08,29.98,12,6,6,15,8,,0.00,3,Rain,180
2013-10-6,66,60,55,64,60,54,100,92,88,30.15,30.12,30.09,19,6,2,14,9,,0.08,6,Rain,167
2013-10-7,67,63,59,61,59,57,100,87,73,30.13,30.08,29.98,16,6,2,21,12,,0.12,6,Rain,174
2013-10-8,62,56,51,59,54,50,100,88,71,30.36,30.25,30.12,12,6,6,16,8,,0.00,6,Rain,263
2013-10-9,58,52,46,52,47,39,94,80,62,30.36,30.32,30.27,19,7,5,21,9,,0.00,6,Rain,297
2013-10-10,54,46,39,41,39,37,93,78,54,30.44,30.40,30.36,19,7,6,14,8,,0.00,1,,346
2013-10-11,58,46,35,46,41,36,100,84,57,30.43,30.38,30.36,19,7,6,17,7,,0.00,1,,31
2013-10-12,53,48,43,50,47,43,100,90,76,30.37,30.26,30.18,16,7,6,14,7,,0.00,6,,14
2013-10-13,57,52,46,50,49,45,94,88,70,30.18,30.07,30.01,12,6,6,9,5,,0.00,6,,15
2013-10-14,57,50,42,48,44,39,100,84,55,30.04,29.95,29.89,19,7,6,10,5,,0.00,3,,24
2013-10-15,59,50,41,50,45,39,93,81,64,29.89,29.82,29.77,12,7,6,17,9,,0.00,4,,98
2013-10-16,61,56,51,54,51,48,94,84,68,29.77,29.63,29.53,16,6,3,24,14,,0.04,4,Rain,188
2013-10-17,62,56,51,55,53,48,100,89,72,29.86,29.80,29.74,12,6,6,14,8,,0.01,4,Rain,142
2013-10-18,61,58,55,59,56,53,100,93,81,29.81,29.58,29.42,16,6,4,29,14,38,0.12,6,Rain,110
2013-10-19,62,58,53,57,54,50,100,90,72,29.42,29.37,29.30,16,7,5,16,9,,0.20,4,Rain,129
2013-10-20,60,56,50,55,52,50,100,92,77,29.53,29.34,29.15,12,6,2,15,10,,0.04,4,Rain,191
2013-10-21,63,56,48,61,54,46,100,94,82,29.53,29.29,29.15,12,6,2,17,10,,0.47,5,Rain,110
2013-10-22,62,58,53,55,54,52,94,90,68,29.16,29.07,29.00,12,6,4,16,12,,0.12,5,Rain,145
2013-10-23,56,52,48,52,44,37,94,75,49,29.71,29.45,29.06,19,7,6,21,12,,0.00,4,Rain,254
2013-10-24,59,54,48,57,52,46,100,91,73,29.76,29.67,29.44,12,6,2,18,11,,0.08,6,Rain,93
2013-10-25,63,58,53,57,54,52,100,90,72,29.53,29.38,29.30,19,7,4,17,12,,0.02,4,Rain,173
2013-10-26,57,54,48,54,49,45,96,86,72,29.56,29.37,29.15,16,6,2,24,11,36,0.24,5,Rain,187
2013-10-27,57,52,47,50,48,45,94,85,67,29.21,29.12,29.03,16,6,2,37,18,52,0.12,5,Rain-Thunderstorm,210
2013-10-28,53,50,46,48,44,41,94,82,62,29.68,29.32,29.06,16,6,3,23,13,29,0.04,4,Rain,258
2013-10-29,53,48,44,45,43,41,93,81,60,30.04,29.91,29.71,16,7,6,18,11,31,0.08,4,Rain,257
2013-10-30,57,50,44,55,47,43,96,86,77,30.01,29.87,29.68,12,6,2,25,14,34,0.08,5,Rain,183
2013-10-31,56,50,45,50,46,43,94,85,74,29.96,29.84,29.77,12,6,4,21,12,34,0.20,4,Rain,198